Regional Weather Roundup
Issued by NWS Charleston, SC

Home | Current Version | Previous Version | Text Only | Print | Product List | Glossary On
Versions: 1 2 3 4 5 6 7 8 9 10 11 12 13 14 15 16 17 18 19 20 21 22 23 24 25 26 27 28 29 30 31 32 33 34 35 36 37 38 39 40 41 42 43 44 45 46 47 48 49 50
000
ASUS42 KCHS 231425
RWRCHS

REGIONAL WEATHER ROUNDUP
NATIONAL WEATHER SERVICE CHARLESTON SC
1000 AM EDT WED APR 23 2014

NOTE: "FAIR" INDICATES FEW OR NO CLOUDS BELOW 12,000 FEET WITH NO
SIGNIFICANT WEATHER AND/OR OBSTRUCTIONS TO VISIBILITY.

NOT ALL STATIONS ARE QUALITY CONTROLLED BY THE NATIONAL
WEATHER SERVICE. USE DATA WITH CAUTION...ESPECIALLY
DEWPOINT OBSERVATIONS.

SCZ027-030-031-034>040-042>050-231500-
...SOUTH CAROLINA...

CITY           SKY/WX    TMP DP  RH WIND       PRES   REMARKS
N CHARLESTON   SUNNY     72  61  68 NW7       29.87R
WATERFRONT PRK   N/A     70 N/A N/A NW6         N/A
FORT JOHNSON     N/A     66  63  88 NW13      29.90R
MOUNT PLEASANT FAIR      72  61  68 NW9       29.86R
JOHNS ISLAND   SUNNY     75  63  64 NW8       29.87R
PINOPOLIS        N/A     68  61  77 NW5       29.77R
MONCKS CORNER  FAIR      72  63  73 NW5       29.86R
SUMMERVILLE    NOT AVBL
BEAUFORT MCAS  MOSUNNY   70  61  73 VRB7      29.89R
BEAUFORT ARPT  FAIR      72  63  73 NW7       29.88S
HILTON HEAD IS SUNNY     70  61  73 W12       29.89R
GEORGETOWN     NOT AVBL
WALTERBORO     SUNNY     70  68  94 W5        29.89R
ORANGEBURG     SUNNY     68  59  73 VRB5      29.88R
BARNWELL       FAIR      70  61  73 NW8       29.91R
AIKEN          FAIR      66  63  88 NW5       29.93R
MANNING        FAIR      72  59  64 N5        29.87R
KINGSTREE      NOT AVBL
COLUMBIA       MOSUNNY   70  55  59 NW5       29.88R
SUMTER         SUNNY     67  56  67 N8        29.86R
FLORENCE       SUNNY     70  51  51 N8        29.85R
MYRTLE BEACH   SUNNY     68  55  64 N12       29.84R
N MYRTLE BEACH SUNNY     71  53  52 NW10G17   29.83R

$$

GAZ063-065-086>088-099>101-113>116-118-119-134-136>141-150-231500-
...GEORGIA...

CITY           SKY/WX    TMP DP  RH WIND       PRES   REMARKS
SAVANNAH ARPT  PTSUNNY   68  62  81 NW10      29.91R
HUNTER AAF     PTSUNNY   66  65  97 W6        29.89R
FORT STEWART   CLOUDY    64  64 100 VRB5      29.91R
STATESBORO     NOT AVBL
SYLVANIA       SUNNY     71  63  75 NW5       29.91R
CLAXTON        PTSUNNY   68  68 100 W5        29.92S
THOMSON        SUNNY     67  59  76 NW8       29.96R
AUGUSTA-BUSH   SUNNY     70  57  63 N10       29.89R
AUGUSTA-DANIEL SUNNY     69  58  67 NW6       29.90R
SWAINSBORO     FAIR      68  64  88 NW5       29.93R
VIDALIA        SUNNY     66  63  88 W3        29.94R
ALMA           SUNNY     71  61  70 W8        29.93R
WAYCROSS       NOT AVBL
JESUP          FAIR      70  64  83 NW8       29.93R
BRUNSWICK      SUNNY     73  63  68 W9        29.93R
SAINT SIMONS   SUNNY     72  62  71 VRB7      29.91R

$$

SCZ027-028-034-036>038-045-046-048>050-GAZ119-141-231500-
...LAKE AND SUPPLEMENTAL COASTAL OBSERVATIONS...

STATION/POSITION TIME  TEMP    WIND        PRES    WAVE   SWELL
                       AIR SEA DIR/SP/G            HT/PER HT/PER/DIR
                 (UTC) (F)     (DEG/KT/KT) (MB)    (FT/S) (FT/S/D)
UPR LAKE MARION  NOT AVBL
WINYAH BAY       1400   68     320/  7     1010.0S
LAKE MURRAY      1300   66     320/  3/  5 1011.2R
ACE BASIN NERRS  1400   70     320/  3     1011.0S
FORT PULASKI     NOT AVBL
SAPELO ISLAND    1400   71     280/  8     1013.0S

$$

ANZ835-935-AMZ111-154-330-350-352-354-374-450-454-472-231500-
...C-MAN AND BUOY OBSERVATIONS...

STATION/POSITION TIME  TEMP    WIND        PRES    WAVE   SWELL
                       AIR SEA DIR/SP/G            HT/PER HT/PER/DIR
                 (UTC) (F)     (DEG/KT/KT) (MB)    (FT/S) (FT/S/D)
FOLLY BEACH CMAN 1400   72     310/  6/  9 1011.5R
BUOY 41004       1400   65 67  280/ 12/ 14 1010.5R   3/ 8   2/ 8
BUOY 41008       1400   65 65  270/ 10/ 12 1012.4R   2/ 9   2/ 90/ 9
5E ST. MARYS GA  1400      65                N/A     2/10
FRYING PAN BUOY  1400   64 67  290/ 14/ 16 1009.2R   3/ 6   2/ 90/ 8
BUOY 41025       1400   61 75  360/ 25/ 31 1007.0R   5/ 8   2/120/ 8
CAPE LOOKOUT NC  1400   67     360/ 10/ 12 1008.2R
BUOY 41002       NOT AVBL
BUOY 41010       1400   74 76  300/ 12/ 14 1013.3R   4/ 8   3/ 70/ 8
BUOY 41012       NOT AVBL
ST AUGUSTINE FL  1400   73     250/  4/  5 1014.0R
CAPERS NEARSHORE NOT AVBL
FRIPP NEARSHORE  1300   67     290/  6/  6   N/A


$$


USA.gov is the U.S. government's official web portal to all federal, state and local government web resources and services.